CZ-6A DEB

Satellite information

Favourite Embed

Satellite Type and Status

DEBRISIN ORBIT

Key statistics

Satellite CZ-6A DEB at a glance.

Uptime

444

Days in orbit

Revolutions

≈ 14.2

Per day

Orbit

LEO

Low Earth Orbit

Inclination

89.3

Latest

Satellite identification and parameters

Extended collection of information and parameters for CZ-6A DEB.

Object identification

Identified? True

Debris? True

Object name: CZ-6A DEB

International designator: 2024-140TQ

Object number (NORAD): 61303

Object ID (CCSDS): 61303

Country: PEOPLES REPUBLIC OF CHINA (PRC)

Current information (Y/N): Y

RCS size: SMALL

Orbital parameters

Period: 101.114 minutes

Inclination: 89.3054 deg

SMA: 7189.559 km

Apoapsis: 841.085 km

Periapsis: 781.763 km

RAAN: 316.9604 deg

Eccentricy: 0.0041256

Argument of periapsis: 167.9851 deg

Mean anomaly: 192.2336 deg

Mean motion: 14.24129132 rev/day

Mean motion (dot): 0.00001018 rev/day2

B* drag term: 0.00043289 1/REarth

Two-line elements (TLE)

Creation date: Oct. 23, 2025, 10:16 p.m.

Reference frame: TEME

Reference center: EARTH

Epoch: Oct. 23, 2025, 11:48 a.m. UTC

TLE line 0: 0 CZ-6A DEB

TLE line 1: 1 61303U 24140TQ 25296.49234814 .00001018 00000-0 43289-3 0 9992

TLE line 2: 2 61303 89.3054 316.9604 0041256 167.9851 192.2336 14.24129132 59951

Live tracking on map

Real-time ground track for satellite CZ-6A DEB.

In-orbit conjunctions

A list of the most updated potential collisions computed for object CZ-6A DEB.

Target Orbit TCA Probability of collision Miss distance Type
FENGYUN 1C DEB SSO 2025-10-24 02:06:33 0.002636207 19.0 (m) DEBRIS
CZ-6A DEB SSO 2025-06-06 16:02:45 0.000173719 165.0 (m) DEBRIS
FENGYUN 1C DEB SSO 2024-11-11 05:05:30 0.0001365367 190.0 (m) DEBRIS
SL-16 DEB LEO 2024-11-05 23:05:45 0.0004257604 311.0 (m) DEBRIS
CZ-6A DEB LEO 2024-10-30 07:42:40 0.0001342322 875.0 (m) DEBRIS

Associated space launch

18 Low Earth Orbit communication satellites with Ku, Q and V band payloads for the G60 constellation operated by Shanghai Spacecom Satellite Technology (SSST) with funding backed by the Shanghai local government. Initial constellation will consist of 1296 satellites by 2027 with long term plans to expand it to 12000 satellites.

CZ-6A DEB was lifted into orbit during the mission ‘Long March 6A | G60 Polar Group 01’, on board a Long March 6A space rocket.

The launch took place on Aug. 6, 2024, 6:42 a.m. from Launch Complex 9A.

For more information about the launch, click the button.

Launch to space Long March 6A | G60 Polar Group 01
Long March 6A | G60 Polar Group 01

Agency: N/A

Status: Launch Successful

Launch date: Aug. 6, 2024, 6:42 a.m. UTC

Rocket: Long March 6A

Launch pad: Launch Complex 9A

Location: Taiyuan Satellite Launch Center, People's Republic of China

...

Latest news about this satellite

News about space launch
Brightness of first Chinese broadband constellation satellites alarms astronomers

The first satellites of a Chinese broadband constellation are significantly brighter than those of Western systems, posing a new challenge for astronomers.

News about space launch
Chinese rocket stage breaks up into cloud of more than 700 pieces of space debris

HELSINKI — A Chinese Long March 6A rocket’s upper stage has fragmented into a cloud of over 700 pieces of space debris, adding to concerns about long-term orbital safety. China […]

News about space launch
China's Thousand Sails Megaconstellation Kicks Off with Dangerous Debris Field

China's Thousand Sails Megaconstellation Kicks Off with Dangerous Debris Field


Newsletter sign-up

Weekly statistics, charts and insights to help you stay on top of the space industry.